Location: Blackwall
(51.5097°N, 0.0016°W)
Time: 23:39:40
(UTC+00:00)

Cosmos 1076 Rocket - Pass Details

Date: 15 May 2026
Orbit: 579 x 604 km, 82.5° (Epoch: 11 June)

Event Time Altitude Azimuth Distance (km) Brightness Sun altitude
Rises 22:28:26 0° 343° (NNW) 2,841 8.7 -16.9°
Reaches altitude 10° 22:30:45 10° 336° (NNW) 1,930 7.4 -17.0°
Maximum altitude 22:34:43 40° 268° (W) 880 4.4 -17.2°
Enters shadow 22:36:58 22° 211° (SSW) 1,303 4.9 -17.3°
